User: anonymous   Login
Location: Unspecified
(0.0000°N, 0.0000°E)
Time: 06:56:26
(UTC+01:00)
Language:

THEMIS A - Orbit

View from above orbital plane
View from above orbital plane
View from above satellite
View from above satellite

Ground track
Ground track

The orbit data is extracted from the following two-line orbital elements,

1 30580U 07004A   18324.75413989 -.00000178  00000-0  00000+0 0  9997
2 30580   8.8340 130.2490 8323975 246.1025  13.7476  0.87835226 41652
Epoch (UTC): 20 November 2018 18:05:57
Eccentricity: 0.8323975
inclination: 8.8340°
perigee height: 1341 km
apogee height: 78014 km
right ascension of ascending node: 130.2490°
argument of perigee: 246.1025°
revolutions per day: 0.87835226
mean anomaly at epoch: 13.7476°
orbit number at epoch: 4165

The dashed part of the orbit path shows where the satellite is in the earth's shadow,  

DLR